Nashville, TN

3:08 AM CST on December 07, 2019 (GMT -0600)
Nashville International

Weather History for KBNA - October, 2019

Change the Weather History Date:

Friday, October 25, 2019

  Actual Average Record
Temperature  
Mean Temperature 54 °F 57 °F  
Max Temperature 61 °F 69 °F 84 °F (1973)
Min Temperature 48 °F 46 °F 29 °F (1965)
Degree Days  
Heating Degree Days 10    
Month to date heating degree days 102  
Since 1 July heating degree days 102  
Cooling Degree Days 0    
Month to date cooling degree days 107  
Year to date cooling degree days 2278  
Growing Degree Days 4 (Base 50)    
Moisture  
Dew Point 51 °F    
Average Humidity 84    
Maximum Humidity 93    
Minimum Humidity 71    
Precipitation  
Precipitation 1.00 in 0.10 in 1.90 in (1977)
Month to date precipitation 4.18 2.41  
Year to date precipitation 51.60 38.07  
Sea Level Pressure  
Sea Level Pressure 30.17 in    
Wind  
Wind Speed 3 mph ()    
Max Wind Speed 12 mph    
Max Gust Speed 16 mph    
Visibility 7.9 miles    
Events Rain    
T = Trace of Precipitation, MM = Missing Value Source: Averaged Metar Reports

Daily Weather History Graph

Daily Weather History Graph

Search for Another Location

Airport or City:

Astronomy

Oct. 25, 2019 Rise Set
Actual Time 7:02 AM CDT 5:58 PM CDT
Civil Twilight 6:36 AM CDT 6:24 PM CDT
Nautical Twilight 6:06 AM CDT 6:54 PM CDT
Astronomical Twilight 5:36 AM CDT 7:24 PM CDT
Moon 3:53 AM CDT (10/25) 4:53 PM CDT (10/25)
Length of Visible Light 11h 48m
Length of Day
10h 56m
Waning Crescent, 9% of the Moon is Illuminated
Oct 25
Waning Crescent
Oct 27
New
Nov 4
First Quarter
Nov 12
Full
Nov 19
Last Quarter

Hourly Weather History & Observations

Time (CDT) Temp. Dew Point Humidity Pressure Visibility Wind Dir Wind Speed Gust Speed Precip Events Conditions
12:53 AM 51.1 °F 44.1 °F 77% 30.24 in 10.0 mi North 3.5 mph - N/A   Clear
1:53 AM 51.1 °F 44.1 °F 77% 30.24 in 10.0 mi WNW 3.5 mph - N/A   Clear
2:53 AM 50.0 °F 44.1 °F 80% 30.24 in 10.0 mi NNW 3.5 mph - N/A   Clear
3:53 AM 51.1 °F 43.0 °F 74% 30.23 in 10.0 mi Calm Calm - N/A   Clear
4:53 AM 48.9 °F 44.1 °F 83% 30.23 in 10.0 mi Calm Calm - N/A   Clear
5:53 AM 48.9 °F 44.1 °F 83% 30.23 in 10.0 mi SSE 3.5 mph - N/A   Mostly Cloudy
6:53 AM 50.0 °F 44.1 °F 80% 30.22 in 10.0 mi Calm Calm - N/A   Mostly Cloudy
7:53 AM 52.0 °F 46.0 °F 80% 30.23 in 10.0 mi Calm Calm - N/A   Overcast
8:53 AM 55.0 °F 46.0 °F 72% 30.25 in 10.0 mi NNE 3.5 mph - N/A   Overcast
9:53 AM 54.0 °F 48.0 °F 80% 30.26 in 10.0 mi Calm Calm - 0.00 in Rain Light Rain
10:53 AM 57.0 °F 50.0 °F 77% 30.24 in 10.0 mi North 4.6 mph - 0.01 in   Overcast
11:53 AM 57.0 °F 51.1 °F 81% 30.23 in 10.0 mi NNE 3.5 mph - 0.01 in Rain Light Rain
12:53 PM 59.0 °F 53.1 °F 81% 30.17 in 10.0 mi NE 6.9 mph - 0.00 in   Overcast
1:53 PM 60.1 °F 54.0 °F 80% 30.16 in 10.0 mi East 3.5 mph - 0.00 in Rain Light Rain
2:53 PM 60.1 °F 54.0 °F 80% 30.17 in 7.0 mi ENE 5.8 mph - 0.02 in Rain Light Rain
3:08 PM 59.0 °F 54.0 °F 83% 30.16 in 8.0 mi NE 6.9 mph - 0.00 in Rain Light Rain
3:53 PM 59.0 °F 55.0 °F 87% 30.16 in 10.0 mi NE 8.1 mph - 0.01 in Rain Light Rain
4:05 PM 59.0 °F 54.0 °F 83% 30.18 in 7.0 mi ENE 6.9 mph - 0.01 in Rain Light Rain
4:53 PM 57.9 °F 55.0 °F 90% 30.15 in 4.0 mi NE 10.4 mph - 0.07 in Rain Rain
5:53 PM 57.9 °F 54.0 °F 87% 30.16 in 7.0 mi Calm Calm - 0.05 in Rain Light Rain
6:53 PM 57.0 °F 54.0 °F 89% 30.15 in 5.0 mi ENE 5.8 mph - 0.09 in Rain Light Rain
7:53 PM 57.0 °F 54.0 °F 89% 30.13 in 7.0 mi Variable 6.9 mph - 0.09 in Rain Light Rain
8:53 PM 57.9 °F 55.0 °F 90% 30.11 in 8.0 mi ENE 8.1 mph - 0.06 in Rain Light Rain
9:53 PM 57.9 °F 55.0 °F 90% 30.10 in 10.0 mi East 6.9 mph - 0.02 in Rain Light Rain
10:53 PM 57.9 °F 55.0 °F 90% 30.06 in 8.0 mi ENE 6.9 mph - 0.02 in Rain Light Rain
11:27 PM 59.0 °F 55.0 °F 87% 30.05 in 8.0 mi NE 6.9 mph - 0.02 in Rain Light Rain
11:37 PM 59.0 °F 55.9 °F 90% 30.07 in 2.5 mi Calm Calm - 0.04 in Rain Rain
11:44 PM 57.9 °F 55.9 °F 93% 30.05 in 1.5 mi ENE 8.1 mph - 0.13 in Rain Heavy Rain
11:49 PM 59.0 °F 55.4 °F 88% 30.05 in 3.0 mi ENE 5.8 mph - 0.16 in Rain Rain
11:53 PM 59.0 °F 55.9 °F 90% 30.03 in 2.5 mi ENE 6.9 mph - 0.20 in Rain Heavy Rain